GW1401 Weather Reports


Display with metric or nautical units.
time (UTC)temp
F
wind
direction
speed
MPH
gust
MPH
rain 1hr
in
rain 24hr
in
rain mn
in
humidity
%
barometer
mb
20260507051314 44 115 0.0 0.0 0.00 0.00 0.00 99 1019.3
20260507050810 44 115 0.0 0.0 0.00 0.00 0.00 99 1019.1
20260507050306 44 114 0.0 0.0 0.00 0.00 0.00 99 1019.1
20260507045804 44 115 0.0 0.0 0.00 0.00 0.00 99 1019.2
20260507045300 44 118 0.0 0.0 0.00 0.00 0.00 99 1019.2
20260507044757 44 116 0.0 0.0 0.00 0.00 0.00 99 1018.9
20260507044253 44 116 0.0 0.0 0.00 0.00 0.00 99 1019.0
20260507043750 45 116 0.0 0.0 0.00 0.00 0.00 99 1018.9
20260507043247 45 116 0.0 0.0 0.00 0.00 0.00 99 1019.0
20260507042743 45 115 0.0 0.0 0.00 0.00 0.00 99 1019.1
20260507042238 45 115 0.0 0.0 0.00 0.00 0.00 99 1019.0
20260507041736 45 115 0.0 0.0 0.00 0.00 0.00 99 1019.2
20260507041232 45 115 0.0 0.0 0.00 0.00 0.00 99 1019.3
20260507040729 45 115 0.0 0.0 0.00 0.00 0.00 99 1019.1
20260507040225 45 115 0.0 0.0 0.00 0.00 0.00 99 1019.3
20260507035721 46 119 0.0 0.0 0.00 0.40 0.40 99 1019.2
20260507035217 46 120 0.0 0.0 0.00 0.40 0.40 98 1019.1
20260507034715 46 116 0.0 0.0 0.00 0.40 0.40 98 1019.2
20260507034212 46 114 0.0 0.0 0.00 0.40 0.40 98 1019.4
20260507033710 46 119 0.0 0.0 0.00 0.40 0.40 98 1019.5
20260507033207 46 119 0.0 0.0 0.00 0.40 0.40 98 1019.2
20260507032704 47 119 0.0 0.0 0.00 0.40 0.40 98 1019.3
20260507032200 47 119 0.0 0.0 0.00 0.40 0.40 98 1019.5
20260507031657 47 121 0.0 0.0 0.00 0.40 0.40 97 1019.4
20260507031153 47 115 0.0 0.0 0.00 0.40 0.40 97 1019.1
20260507030650 47 127 0.0 0.0 0.00 0.40 0.40 97 1019.3
20260507030148 47 115 0.0 0.0 0.00 0.40 0.40 96 1019.1
20260507025645 47 115 0.0 0.0 0.00 0.40 0.40 96 1019.1
20260507025142 47 115 0.0 0.0 0.00 0.40 0.40 96 1019.1
20260507024640 47 115 0.0 0.0 0.00 0.40 0.40 95 1019.0
20260507024137 47 114 0.0 0.0 0.00 0.40 0.40 95 1019.0
20260507023632 48 115 0.0 0.0 0.00 0.40 0.40 94 1018.8
20260507023130 48 114 0.0 0.0 0.00 0.40 0.40 94 1018.8
20260507022627 48 115 0.0 0.0 0.00 0.40 0.40 93 1018.8
20260507022122 49 114 0.0 0.0 0.00 0.40 0.40 93 1018.9
20260507021619 49 115 0.0 0.0 0.00 0.40 0.40 92 1018.9
20260507021115 49 115 0.0 0.0 0.00 0.40 0.40 91 1018.6
20260507020613 50 115 0.0 0.0 0.00 0.40 0.40 90 1018.7
20260507020109 50 114 0.0 0.0 0.00 0.40 0.40 89 1018.4
20260507015608 50 115 0.0 0.0 0.00 0.40 0.40 88 1018.2
20260507015105 50 115 0.0 0.0 0.00 0.40 0.40 88 1018.2
20260507014601 51 114 0.0 0.0 0.00 0.40 0.40 88 1018.2
20260507014057 51 114 0.0 0.0 0.00 0.40 0.40 88 1018.1
20260507013554 52 114 0.0 0.0 0.00 0.40 0.40 87 1018.2
20260507013051 52 115 0.0 0.0 0.00 0.40 0.40 86 1018.1
20260507012548 52 115 0.0 0.0 0.00 0.40 0.40 85 1018.0
20260507012044 52 115 0.0 0.0 0.00 0.40 0.40 84 1018.2
20260507011542 52 115 0.0 0.0 0.00 0.40 0.40 80 1018.3
20260507011038 53 115 0.0 0.0 0.00 0.40 0.40 78 1018.1
20260507010532 53 115 0.0 0.0 0.00 0.40 0.40 78 1018.1
20260507010029 53 114 0.0 0.0 0.00 0.40 0.40 77 1018.0
20260507005527 54 114 0.0 0.0 0.00 0.40 0.40 75 1018.1
20260507005023 55 114 0.0 0.0 0.00 0.40 0.40 72 1018.1
20260507004520 56 115 0.0 0.0 0.00 0.40 0.40 72 1018.0
20260507004018 56 114 0.0 0.0 0.00 0.40 0.40 68 1017.8
20260507003513 57 114 0.0 0.0 0.00 0.40 0.40 69 1018.0
20260507003008 57 115 0.0 0.0 0.00 0.40 0.40 69 1018.0
20260507002505 58 115 0.0 0.0 0.00 0.40 0.40 68 1017.8
20260507002001 58 115 0.0 0.0 0.00 0.40 0.40 67 1017.9
20260507001457 59 113 0.0 1.0 0.00 0.40 0.40 64 1018.0
20260507000955 59 141 0.0 1.0 0.00 0.40 0.40 59 1017.9
20260507000451 59 158 0.0 1.0 0.00 0.40 0.40 63 1017.7
20260506235946 59 115 0.0 1.0 0.00 0.40 0.40 63 1017.7
20260506235444 59 51 1.0 1.0 0.00 0.40 0.40 62 1017.8
20260506234939 59 147 1.0 1.0 0.00 0.40 0.40 59 1017.7
20260506234437 59 118 0.0 2.0 0.00 0.40 0.40 57 1017.8
20260506233934 59 140 0.0 5.0 0.00 0.40 0.40 59 1017.5
20260506233431 60 336 4.0 7.0 0.00 0.40 0.40 55 1017.3
20260506232928 59 191 0.0 7.0 0.00 0.40 0.40 60 1017.7
20260506232424 59 113 0.0 2.0 0.00 0.40 0.40 62 1017.5
20260506231920 59 130 0.0 3.0 0.00 0.40 0.40 62 1017.7
20260506231418 60 114 1.0 1.0 0.00 0.40 0.40 69 1017.7
20260506230915 60 120 0.0 2.0 0.00 0.40 0.40 63 1017.8
20260506230411 60 349 3.0 5.0 0.00 0.40 0.40 61 1017.7
20260506225908 60 134 0.0 1.0 0.00 0.40 0.40 63 1017.7
20260506225405 60 116 0.0 2.0 0.00 0.40 0.40 59 1017.6
20260506224902 60 39 1.0 3.0 0.00 0.40 0.40 57 1017.6
20260506224359 60 284 3.0 5.0 0.00 0.40 0.40 58 1017.2
20260506223855 60 11 2.0 2.0 0.00 0.40 0.40 60 1017.2
20260506223350 61 111 2.0 6.0 0.00 0.40 0.40 56 1017.3
20260506222848 61 177 0.0 1.0 0.00 0.40 0.40 55 1017.1
20260506222344 61 108 0.0 0.0 0.00 0.40 0.40 57 1017.2
20260506221842 61 83 0.0 0.0 0.00 0.40 0.40 56 1017.0
20260506221339 61 79 0.0 0.0 0.00 0.40 0.40 56 1017.0
20260506220836 61 326 1.0 3.0 0.00 0.40 0.40 51 1017.3
20260506220332 62 85 0.0 0.0 0.00 0.40 0.40 53 1017.0
20260506215829 62 262 0.0 1.0 0.00 0.40 0.40 53 1017.2
20260506215324 62 273 1.0 3.0 0.00 0.40 0.40 52 1017.1
20260506214820 62 126 0.0 1.0 0.00 0.40 0.40 52 1017.1
20260506214317 62 95 1.0 2.0 0.00 0.40 0.40 54 1017.1
20260506213816 61 130 0.0 5.0 0.00 0.40 0.40 55 1017.3
20260506213313 62 110 0.0 2.0 0.00 0.40 0.40 57 1017.1
20260506212810 62 344 3.0 6.0 0.00 0.40 0.40 51 1017.2
20260506212307 62 197 0.0 0.0 0.00 0.40 0.40 53 1017.3
20260506211800 62 60 1.0 2.0 0.00 0.40 0.40 51 1017.6
20260506211257 62 216 1.0 3.0 0.00 0.40 0.40 52 1017.5
20260506210754 62 103 0.0 1.0 0.00 0.40 0.40 50 1017.4
20260506210251 63 189 3.0 5.0 0.00 0.40 0.40 50 1017.5
20260506205748 63 110 0.0 2.0 0.00 0.40 0.40 47 1017.4
20260506205244 64 72 1.0 3.0 0.00 0.40 0.40 47 1017.1
20260506204741 64 202 2.0 2.0 0.00 0.40 0.40 52 1017.6
20260506204238 64 127 0.0 2.0 0.00 0.40 0.40 47 1017.4
20260506203736 63 267 2.0 5.0 0.00 0.40 0.40 50 1017.7
20260506203233 63 280 2.0 2.0 0.00 0.40 0.40 50 1017.6
20260506202730 63 284 3.0 5.0 0.00 0.40 0.40 50 1017.5
20260506202227 64 351 3.0 6.0 0.00 0.40 0.40 54 1017.4
20260506201724 64 319 4.0 6.0 0.00 0.40 0.40 49 1017.3
20260506201220 64 114 0.0 5.0 0.00 0.40 0.40 52 1017.2
20260506200717 65 125 1.0 2.0 0.00 0.40 0.40 52 1017.1
20260506200209 64 276 2.0 3.0 0.00 0.40 0.40 51 1017.4
20260506195705 64 24 1.0 5.0 0.00 0.40 0.40 53 1017.2
20260506195201 64 226 1.0 3.0 0.00 0.40 0.40 49 1017.4
20260506194659 65 348 3.0 6.0 0.00 0.40 0.40 48 1017.3
20260506194155 65 170 0.0 2.0 0.00 0.40 0.40 53 1017.6
20260506193653 63 95 1.0 6.0 0.00 0.40 0.40 54 1017.7
20260506193149 64 210 3.0 7.0 0.00 0.40 0.40 50 1017.8
20260506192646 64 64 0.0 2.0 0.00 0.40 0.40 52 1017.5
20260506192142 64 155 1.0 5.0 0.00 0.40 0.40 53 1017.5
20260506191639 64 283 2.0 2.0 0.00 0.40 0.40 49 1017.5
20260506191135 64 53 2.0 2.0 0.00 0.40 0.40 51 1017.3
20260506190633 63 191 1.0 5.0 0.00 0.40 0.40 49 1017.4
20260506190129 63 122 1.0 8.0 0.00 0.40 0.40 52 1017.5
20260506185627 64 123 0.0 5.0 0.00 0.40 0.40 48 1017.4
20260506185123 64 263 3.0 6.0 0.00 0.40 0.40 50 1017.6
20260506184620 63 126 1.0 2.0 0.00 0.40 0.40 52 1017.6
20260506184117 63 144 1.0 2.0 0.00 0.40 0.40 54 1017.6
20260506183614 63 229 2.0 3.0 0.00 0.40 0.40 53 1017.5
20260506183110 62 60 1.0 8.0 0.00 0.40 0.40 53 1017.4
20260506182608 63 178 1.0 5.0 0.00 0.40 0.40 53 1017.5
20260506182105 62 205 1.0 2.0 0.00 0.40 0.40 52 1017.4
20260506181603 61 339 4.0 8.0 0.00 0.40 0.40 55 1017.3
20260506181059 61 9 0.0 8.0 0.00 0.40 0.40 55 1017.3
20260506180556 62 89 1.0 9.0 0.00 0.40 0.40 58 1017.3
20260506180053 62 108 1.0 5.0 0.00 0.40 0.40 59 1017.1
20260506175549 62 254 2.0 3.0 0.00 0.40 0.40 58 1017.1
20260506175045 62 348 3.0 7.0 0.00 0.40 0.40 60 1017.3
20260506174544 62 313 5.0 8.0 0.00 0.40 0.40 59 1017.1
20260506174039 62 213 0.0 8.0 0.00 0.40 0.40 55 1017.5
20260506173538 62 335 3.0 5.0 0.00 0.40 0.40 58 1017.4
20260506173034 62 144 1.0 3.0 0.00 0.40 0.40 53 1017.3
20260506172532 62 146 1.0 3.0 0.00 0.40 0.40 59 1017.4
20260506172028 62 249 2.0 6.0 0.00 0.40 0.40 58 1017.5
20260506171525 61 75 0.0 3.0 0.00 0.40 0.40 61 1017.9
20260506171023 61 151 2.0 5.0 0.00 0.40 0.40 62 1017.8
20260506170520 60 106 1.0 3.0 0.00 0.40 0.40 58 1017.6
20260506170012 60 336 3.0 8.0 0.00 0.40 0.40 55 1017.7
20260506165510 61 345 4.0 5.0 0.00 0.40 0.40 56 1017.8
20260506165006 61 186 3.0 3.0 0.00 0.40 0.40 56 1017.8
20260506164503 60 125 0.0 2.0 0.00 0.40 0.40 57 1017.7
20260506164000 60 126 2.0 6.0 0.00 0.40 0.40 57 1017.8
20260506163456 61 121 2.0 2.0 0.00 0.40 0.40 54 1018.1
20260506162950 60 183 3.0 6.0 0.00 0.40 0.40 61 1018.0
20260506162448 60 302 2.0 5.0 0.00 0.40 0.40 61 1018.0
20260506161945 59 355 5.0 7.0 0.00 0.40 0.40 62 1017.8
20260506161443 60 193 3.0 5.0 0.00 0.40 0.40 60 1017.9
20260506160940 59 124 2.0 3.0 0.00 0.40 0.40 65 1018.0
20260506160438 59 109 1.0 6.0 0.00 0.40 0.40 62 1018.0
20260506155935 59 243 3.0 7.0 0.00 0.40 0.40 65 1017.9
20260506155433 59 342 4.0 6.0 0.00 0.40 0.40 62 1018.2
20260506153559 58 200 3.0 5.0 0.00 0.40 0.40 64 1017.7
20260506153057 59 209 2.0 6.0 0.00 0.40 0.40 62 1017.5
20260506152553 58 197 1.0 5.0 0.00 0.40 0.40 66 1017.4
20260506152052 58 65 2.0 5.0 0.00 0.40 0.40 65 1017.4
20260506151549 58 153 2.0 3.0 0.00 0.40 0.40 62 1017.2
20260506151046 59 33 1.0 2.0 0.00 0.40 0.40 67 1017.3
20260506150542 57 246 1.0 7.0 0.00 0.40 0.40 66 1017.4
20260506150040 56 297 2.0 3.0 0.00 0.40 0.40 70 1017.4
20260506145536 56 250 2.0 5.0 0.00 0.40 0.40 67 1017.3
20260506145034 57 302 2.0 5.0 0.00 0.40 0.40 69 1017.1
20260506144530 57 86 0.0 2.0 0.00 0.40 0.40 68 1017.2
20260506144028 56 190 0.0 5.0 0.00 0.40 0.40 71 1017.3
20260506143525 55 340 2.0 3.0 0.00 0.40 0.40 69 1017.2
20260506143024 56 346 3.0 8.0 0.00 0.40 0.40 70 1017.2
20260506142521 56 138 0.0 2.0 0.00 0.40 0.40 69 1017.0
20260506142019 56 323 2.0 3.0 0.00 0.40 0.40 73 1017.2
20260506141517 55 193 1.0 2.0 0.00 0.40 0.40 72 1016.9
20260506141015 55 125 0.0 2.0 0.00 0.40 0.40 75 1016.7
20260506140512 55 82 1.0 2.0 0.00 0.40 0.40 77 1016.9
20260506140009 53 127 0.0 3.0 0.00 0.40 0.40 78 1016.5
20260506135506 53 2 4.0 6.0 0.00 0.40 0.40 77 1016.7
20260506135002 53 70 1.0 2.0 0.00 0.40 0.40 77 1016.9
20260506134458 53 168 0.0 1.0 0.00 0.40 0.40 80 1016.6
20260506133954 52 110 2.0 5.0 0.00 0.40 0.40 82 1016.7
20260506133452 51 215 1.0 2.0 0.00 0.40 0.40 85 1016.6
20260506132948 50 240 1.0 2.0 0.00 0.40 0.40 88 1016.6
20260506132445 49 308 1.0 3.0 0.00 0.40 0.40 91 1016.4
20260506131943 49 24 2.0 3.0 0.00 0.40 0.40 94 1016.3
20260506131439 48 206 0.0 1.0 0.00 0.40 0.40 96 1016.5
20260506130936 48 6 0.0 1.0 0.00 0.40 0.40 98 1016.4
20260506130433 47 117 0.0 1.0 0.00 0.40 0.40 99 1016.4
20260506125931 47 71 2.0 3.0 0.00 0.40 0.40 99 1016.1
20260506125429 47 228 2.0 3.0 0.00 0.40 0.40 99 1016.2
20260506124927 46 118 0.0 3.0 0.00 0.40 0.40 99 1016.2
20260506124424 47 345 0.0 2.0 0.00 0.40 0.40 99 1016.5
20260506123922 46 49 1.0 3.0 0.00 0.40 0.40 99 1016.4
20260506123420 47 212 1.0 3.0 0.00 0.40 0.40 99 1016.1
20260506122917 46 92 1.0 1.0 0.00 0.40 0.40 99 1016.1
20260506122413 46 225 1.0 5.0 0.00 0.40 0.40 99 1016.0
20260506121912 46 143 1.0 2.0 0.00 0.40 0.40 99 1016.0
20260506121408 46 265 1.0 1.0 0.00 0.40 0.40 99 1015.9
20260506120905 46 15 1.0 3.0 0.00 0.40 0.40 99 1016.1
20260506120403 46 228 0.0 1.0 0.00 0.40 0.40 99 1016.3
20260506115900 46 120 0.0 2.0 0.00 0.40 0.40 99 1016.0
20260506115358 46 138 0.0 1.0 0.00 0.40 0.40 99 1016.2
20260506114856 45 119 0.0 1.0 0.00 0.40 0.40 99 1016.3
20260506114353 46 93 1.0 2.0 0.00 0.40 0.40 99 1016.0
20260506113853 45 101 0.0 1.0 0.00 0.40 0.40 99 1015.5
20260506113349 45 86 0.0 2.0 0.00 0.40 0.40 99 1015.4
20260506112846 45 197 0.0 2.0 0.00 0.40 0.40 99 1015.6
20260506112343 45 57 1.0 3.0 0.00 0.40 0.40 99 1015.3
20260506111840 45 11 1.0 5.0 0.00 0.40 0.40 99 1015.2
20260506111338 45 118 1.0 2.0 0.00 0.40 0.40 99 1015.0
20260506110836 45 113 0.0 0.0 0.00 0.40 0.40 99 1015.1
20260506110333 45 169 0.0 2.0 0.00 0.40 0.40 99 1015.2
20260506105830 45 65 1.0 3.0 0.00 0.40 0.40 99 1015.1
20260506105326 45 141 1.0 1.0 0.00 0.40 0.40 99 1014.7
20260506104823 45 134 0.0 3.0 0.00 0.40 0.40 99 1014.4
20260506104321 45 76 1.0 1.0 0.00 0.40 0.40 99 1014.5
20260506103818 45 122 0.0 2.0 0.00 0.40 0.40 99 1014.5
20260506103316 45 124 0.0 3.0 0.00 0.40 0.40 99 1014.4
20260506102813 45 87 1.0 5.0 0.00 0.40 0.40 99 1014.3
20260506102311 45 41 2.0 7.0 0.00 0.40 0.40 99 1014.2
20260506101808 45 63 1.0 3.0 0.00 0.40 0.40 99 1014.2
20260506101304 45 254 1.0 5.0 0.00 0.40 0.40 99 1013.9
20260506100802 45 271 2.0 3.0 0.00 0.40 0.40 99 1014.3
20260506100300 45 206 0.0 3.0 0.00 0.40 0.40 99 1013.9
20260506095758 45 131 0.0 2.0 0.00 0.40 0.40 99 1013.3
20260506095255 46 133 1.0 3.0 0.00 0.40 0.40 99 1013.8
20260506094751 46 55 3.0 6.0 0.00 0.40 0.40 99 1014.0
20260506094250 46 283 2.0 3.0 0.00 0.40 0.40 99 1013.8
20260506093748 46 100 1.0 3.0 0.00 0.40 0.40 99 1013.8
20260506093245 46 293 2.0 3.0 0.00 0.40 0.40 99 1013.5
20260506092743 46 141 0.0 5.0 0.00 0.40 0.40 99 1013.6
20260506092241 46 333 1.0 3.0 0.00 0.40 0.40 99 1013.4
20260506091737 46 166 0.0 1.0 0.00 0.40 0.40 99 1013.4
20260506091235 46 96 0.0 3.0 0.00 0.40 0.40 99 1013.2
20260506090733 46 109 0.0 1.0 0.00 0.40 0.40 99 1013.1
20260506090229 46 64 1.0 3.0 0.00 0.40 0.40 99 1013.1
20260506085726 47 101 2.0 5.0 0.00 0.40 0.40 99 1012.9
20260506085222 47 115 2.0 5.0 0.00 0.40 0.40 99 1012.8
20260506084719 47 146 0.0 1.0 0.00 0.40 0.40 99 1012.8
20260506084215 47 351 2.0 3.0 0.00 0.40 0.40 99 1012.9
20260506083713 48 72 2.0 3.0 0.00 0.40 0.40 99 1013.2
20260506083210 48 353 5.0 6.0 0.00 0.40 0.40 99 1013.3
20260506082707 49 86 1.0 3.0 0.00 0.40 0.40 99 1013.0
20260506082203 49 290 3.0 5.0 0.00 0.40 0.40 99 1013.0
20260506081701 49 49 0.0 2.0 0.00 0.40 0.40 99 1012.6
20260506081158 49 300 4.0 9.0 0.00 0.40 0.40 99 1012.5
20260506080656 49 319 1.0 3.0 0.00 0.40 0.40 99 1012.2
20260506080152 49 216 2.0 3.0 0.00 0.40 0.40 99 1012.2
20260506073136 50 347 4.0 5.0 0.05 0.38 0.38 99 1011.9
20260506072633 50 102 2.0 5.0 0.12 0.38 0.38 99 1011.8
20260506072131 50 111 1.0 6.0 0.19 0.37 0.37 99 1011.9
20260506071628 50 80 2.0 6.0 0.12 0.36 0.36 99 1011.8
20260506071126 50 256 3.0 8.0 0.00 0.34 0.34 99 1011.9
20260506070622 50 72 1.0 6.0 0.00 0.34 0.34 99 1011.6
20260506070119 50 100 1.0 2.0 0.00 0.34 0.34 99 1011.5
20260506062057 51 99 1.0 3.0 0.07 0.32 0.32 99 1011.3
20260506061552 51 127 0.0 6.0 0.05 0.31 0.31 99 1011.4
20260506061050 51 351 2.0 6.0 0.12 0.31 0.31 99 1011.2
20260506060549 51 97 4.0 10.0 0.07 0.30 0.30 99 1011.5